Flag for Switzerland Weather past 2 weeks in Aarau, Aargau, Switzerland

Now
69 °F

Mild.


Feels Like: 69 °F
Forecast: 54 / 78 °F
Wind: 1 mph from Southeast

Location: Wynau

Current Time: Jul 24, 2014 at 8:09:07 PM

Latest Report: Jul 24, 2014 at 7:00 PM


Visibility: N/A

Pressure: 29.86 "Hg

Humidity: 73%

Dew point: 60 °F

Location of AarauLocation

Historic Weather in Aarau — Graph

°F

Aarau temperature yesterday

Maximum temperature yesterday: 79 °F (at 3:00 PM)
Minimum temperature yesterday: 63 °F (at 6:00 AM)
Average temperature yesterday: 69 °F

Past Weeks' High & Low Weather Summary

 TemperatureHumidityPressure
High88 °F (Jul 18, 5:00 PM)100% (Jul 23, 1:00 AM)30.22 "Hg (Jul 23, 1:00 AM)
Low50 °F (Jul 10, 6:00 AM)27% (Jul 18, 7:00 PM)29.82 "Hg (Jul 20, 12:00 AM)
Average65 °F80%29.98 "Hg
* Reported Jul 9 6:00 PM — Jul 24 6:00 PM, Aarau, Weather by CustomWeather, © 2014

Note: Actual official high and low records may vary slightly from our data, if they occured in-between our weather recording intervals... More about our weather records

Advertising

Aarau weather history for previous 24 hours

 ConditionsComfort  
Time TempWeatherWind HumidityBarometerVisibility
6:00 PM
Jul 24
75 °FMild.6 mph48%29.86 "HgN/A
5:00 PM78 °FWarm.2 mph45%29.84 "HgN/A
4:00 PM77 °FWarm.6 mph43%29.85 "HgN/A
3:00 PM78 °FWarm.9 mph43%29.84 "HgN/A
2:00 PM77 °FWarm.6 mph42%29.85 "HgN/A
1:00 PM76 °FMild.6 mph51%29.86 "HgN/A
12:00 PM74 °FMild.3 mph59%29.87 "HgN/A
11:00 AM71 °FMild.3 mph61%29.88 "HgN/A
10:00 AM70 °FMild.6 mph64%29.88 "HgN/A
9:00 AM64 °FMild.1 mph87%29.88 "HgN/A
8:00 AM61 °FCool.1 mph95%29.89 "HgN/A
7:00 AM59 °FCool.1 mph97%29.88 "HgN/A
6:00 AM59 °FCool.1 mph98%29.87 "HgN/A
5:00 AM59 °FCool.1 mph98%29.87 "HgN/A
4:00 AM59 °FCool.1 mph99%29.87 "HgN/A
3:00 AM59 °FCool.2 mph99%29.87 "HgN/A
2:00 AM60 °FCool.No wind98%29.88 "HgN/A
1:00 AM61 °FCool.2 mph98%29.89 "HgN/A
12:00 AM62 °FCool.No wind96%29.89 "HgN/A
11:00 PM
Jul 23
63 °FMild.No wind93%29.89 "HgN/A
10:00 PM65 °FMild.2 mph88%29.89 "HgN/A
9:00 PM68 °FMild.2 mph82%29.88 "HgN/A
8:00 PM72 °FMild.2 mph74%29.85 "HgN/A
Weather by CustomWeather, © 2014

See weather overviewHow to use our weather pages